N0OQA Weather Reports


Display with metric or nautical units.
time (UTC)temp
F
wind
direction
speed
MPH
gust
MPH
rain 1hr
in
rain 24hr
in
rain mn
in
humidity
%
barometer
mb
20260503060227 57 204 4.0 6.0 0.00 0.00 0.00 52 1008.1
20260503054726 56 183 6.0 7.0 0.00 0.00 0.00 51 1008.4
20260503054226 56 203 6.0 7.0 0.00 0.00 0.00 51 1008.5
20260503053725 56 163 5.0 6.0 0.00 0.00 0.00 50 1008.5
20260503053225 57 172 6.0 8.0 0.00 0.00 0.00 50 1008.5
20260503052725 57 181 6.0 7.0 0.00 0.00 0.00 50 1008.6
20260503052224 57 207 5.0 6.0 0.00 0.00 0.00 50 1008.8
20260503051724 57 176 5.0 6.0 0.00 0.00 0.00 49 1008.8
20260503050723 57 257 5.0 7.0 0.00 0.00 0.00 49 1008.9
20260503044722 58 197 5.0 7.0 0.00 0.00 0.00 47 1009.1
20260503044222 58 204 5.0 6.0 0.00 0.00 0.00 47 1009.1
20260503043722 58 207 6.0 8.0 0.00 0.00 0.00 46 1009.2
20260503043221 59 180 5.0 7.0 0.00 0.00 0.00 46 1009.3
20260503042721 59 193 6.0 9.0 0.00 0.00 0.00 46 1009.4
20260503042221 59 170 5.0 7.0 0.00 0.00 0.00 46 1009.4
20260503041720 59 179 5.0 6.0 0.00 0.00 0.00 46 1009.4
20260503040720 59 195 7.0 10.0 0.00 0.00 0.00 46 1009.6
20260503035719 60 176 4.0 6.0 0.00 0.00 0.00 46 1009.8
20260503035219 60 204 5.0 6.0 0.00 0.00 0.00 46 1009.9
20260503033718 60 190 5.0 7.0 0.00 0.00 0.00 46 1010.0
20260503032217 60 174 5.0 7.0 0.00 0.00 0.00 46 1010.4
20260503031217 60 129 4.0 6.0 0.00 0.00 0.00 46 1010.6
20260503030716 60 198 5.0 6.0 0.00 0.00 0.00 46 1010.6
20260503025216 60 177 1.0 3.0 0.00 0.00 0.00 46 1010.9
20260503024215 60 174 4.0 5.0 0.00 0.00 0.00 45 1010.9
20260503023715 60 170 6.0 8.0 0.00 0.00 0.00 45 1011.0
20260503023214 60 179 4.0 5.0 0.00 0.00 0.00 45 1011.0
20260503022714 61 235 5.0 8.0 0.00 0.00 0.00 45 1011.2
20260503022214 61 170 5.0 7.0 0.00 0.00 0.00 44 1011.2
20260503021714 61 184 6.0 9.0 0.00 0.00 0.00 44 1011.4
20260503020713 61 211 4.0 5.0 0.00 0.00 0.00 43 1011.6
20260503020213 61 219 6.0 8.0 0.00 0.00 0.00 42 1011.7
20260503014211 62 221 7.0 10.0 0.00 0.00 0.00 40 1011.8
20260502195152 64 224 9.0 13.0 0.00 0.00 0.00 34 1015.3
20260502185148 63 180 11.0 15.0 0.00 0.00 0.00 34 1016.7
20260502122624 36 0 0.0 0.0 0.00 0.00 0.00 82 1020.6
20260502122124 36 0 0.0 0.0 0.00 0.00 0.00 80 1020.8
20260502121623 36 0 0.0 0.0 0.00 0.00 0.00 80 1020.7
20260502121123 36 0 0.0 0.0 0.00 0.00 0.00 80 1020.7
20260502115121 36 0 0.0 0.0 0.00 0.00 0.00 81 1020.6
20260502114621 35 0 0.0 0.0 0.00 0.00 0.00 82 1020.6
20260502114120 35 0 0.0 0.0 0.00 0.00 0.00 83 1020.6
20260502113620 34 0 0.0 0.0 0.00 0.00 0.00 85 1020.6
20260502112119 33 0 0.0 0.0 0.00 0.00 0.00 87 1020.6
20260502111619 33 0 0.0 0.0 0.00 0.00 0.00 88 1020.6
20260502111119 33 0 0.0 0.0 0.00 0.00 0.00 88 1020.6
20260502110618 33 211 1.0 3.0 0.00 0.00 0.00 88 1020.6
20260502105618 33 0 0.0 0.0 0.00 0.00 0.00 89 1020.5
20260502105117 33 0 0.0 0.0 0.00 0.00 0.00 89 1020.5
20260502104617 33 0 0.0 0.0 0.00 0.00 0.00 90 1020.5
20260502103116 32 0 0.0 0.0 0.00 0.00 0.00 92 1020.5
20260502102116 33 0 0.0 0.0 0.00 0.00 0.00 92 1020.5
20260502101115 33 0 0.0 0.0 0.00 0.00 0.00 91 1020.4
20260502100615 33 240 2.0 3.0 0.00 0.00 0.00 91 1020.5
20260502100115 33 0 0.0 0.0 0.00 0.00 0.00 90 1020.4
20260502091112 34 0 0.0 0.0 0.00 0.00 0.00 79 1020.3
20260502090611 34 0 0.0 0.0 0.00 0.00 0.00 79 1020.2
20260502090111 34 0 0.0 0.0 0.00 0.00 0.00 78 1020.2
20260502080108 36 0 0.0 0.0 0.00 0.00 0.00 71 1020.3
20260502070605 38 0 0.0 0.0 0.00 0.00 0.00 67 1020.5
20260502070104 38 0 0.0 0.0 0.00 0.00 0.00 67 1020.5
20260502065604 38 0 0.0 0.0 0.00 0.00 0.00 66 1020.6
20260502065104 38 0 0.0 0.0 0.00 0.00 0.00 67 1020.6
20260502064603 38 0 0.0 0.0 0.00 0.00 0.00 67 1020.6
20260502063102 38 0 0.0 0.0 0.00 0.00 0.00 67 1020.7
20260502062602 38 0 0.0 0.0 0.00 0.00 0.00 67 1020.3
20260502062102 38 0 0.0 0.0 0.00 0.00 0.00 67 1020.7